< < Back
Terminal Aerodrome Forecast


Current Version              Previous Versions:   1  2  3  4  5  6  7  8  9  

Terminal Aerodrome Forecast

619
FTUS42 KJAX 221720
TAFGNV
TAF
KGNV 221720Z 2218/2318 02010KT P6SM SCT040 SCT100 BKN200
     FM230100 02004KT P6SM SCT030 SCT100 BKN200
     FM231400 06012G18KT P6SM SCT040=



Latest METAR

935
SAUS70 KWBC 231000 RRN
MTRGNV
METAR KGNV 230953Z AUTO 04004KT 8SM FEW022 20/19 A3021 RMK AO2 SLP226
T02000189


USA.gov is the U.S. government's official web portal to all federal, state and local government web resources and services.